Regional Weather Roundup
Issued by NWS Cleveland, OH

Home | Current Version | Previous Version | Graphics & Text | Print | Product List | Glossary On
Versions: 1 2 3 4 5 6 7 8 9 10 11 12 13 14 15 16 17 18 19 20 21 22 23 24 25 26 27 28 29 30 31 32 33 34 35 36 37 38 39 40 41 42 43 44 45 46 47 48 49 50
000
ASUS41 KCLE 270400
RWRCLE
OHIO REGIONAL WEATHER ROUNDUP
NATIONAL WEATHER SERVICE WILMINGTON, OH
1100 PM EST THU FEB 26 2015

NOTE: "FAIR" INDICATES FEW OR NO CLOUDS BELOW 12,000 FEET WITH NO
SIGNIFICANT WEATHER AND/OR OBSTRUCTIONS TO VISIBILITY.

OHZ001>008-015>018-024>027-034-035-043-044-270500-
   NORTHWEST OHIO

CITY           SKY/WX    TMP DP  RH WIND       PRES   REMARKS
DEFIANCE       MOCLDY     9  -1  64 N6        30.36R WCI  -1
FINDLAY        CLEAR      9   5  84 NW5       30.32R WCI   1
TOLEDO EXPRESS PTCLDY     7  -1  70 CALM      30.34R
TOLEDO EXEC      N/A     10  -1  61 N5        30.35R WCI   2
LIMA           CLOUDY     6   3  87 CALM      30.31R
$$

OHZ009>014-019>023-028>033-038-089-270500-
   NORTHEAST OHIO

CITY           SKY/WX    TMP DP  RH WIND       PRES   REMARKS
CLE-HOPKINS    LGT SNOW   8   2  76 N8        30.33R FOG     WCI  -4
CLE-LAKEFRONT  MOCLDY     9   1  70 N8        30.32R WCI  -3
CUY CO. ARPT   CLOUDY     9   5  85 N9        30.29R WCI  -5
LORAIN-ELYRIA  MOCLDY     8   2  76 NE8       30.32R WCI  -4
ASHTABULA      CLOUDY     7   1  76 NW3       30.26R
AKRON-CANTON   LGT SNOW   9   1  70 N7        30.24R WCI  -2
WOOSTER        LGT SNOW   7   3  85 NW6       30.26R FOG     WCI  -3
MANSFIELD      LGT SNOW   6   3  87 CALM      30.25R FOG
YOUNGSTOWN     LGT SNOW   7   2  80 NW9       30.23R WCI  -7
$$

OHZ042-051>053-060>062-070>072-077>081-270500-
  SOUTHWEST OHIO

CITY           SKY/WX    TMP DP  RH WIND       PRES   REMARKS
CINC-COVINGTON CLEAR     12   4  70 N8        30.32R WCI   0
CINC-LUNKEN    CLEAR     13   5  70 N6        30.37R WCI   4
HAMILTON       CLEAR      5   1  83 NW5       30.36R WCI  -4
DAYTON         NOT AVBL
WRIGHT-PAT AFB NOT AVBL
DAYTON GENERAL CLEAR     11   4  73 N6        30.31R WCI   1
WILMINGTON     MOCLDY     9   2  73 N7        30.29R WCI  -2
$$

OHZ036-037-039>041-045>050-054>059-063>069-073>076-082>088-270500-
  CENTRAL AND SOUTHEAST OHIO

CITY           SKY/WX    TMP DP  RH WIND       PRES   REMARKS
COLUMBUS       PTCLDY    11   4  73 N7        30.30R WCI   0
OSU AIRPORT    PTCLDY     9   3  77 N6        30.30R WCI  -1
BOLTON FIELD   NOT AVBL
RICKENBACK AFB PTCLDY    12   4  70 N7        30.31R WCI   1
NEWARK         MOCLDY    11   4  73 N6        30.29R WCI   1
MARION         CLEAR      5   1  83 NW6       30.30R WCI  -6
LANCASTER      CLOUDY    12   6  77 N6        30.30R WCI   3
ZANESVILLE     FLURRIES  11   4  73 N5        30.27R WCI   3
NEW PHILLY     LGT SNOW  12   4  70 NW7       30.27R WCI   1
$$



USA.gov is the U.S. government's official web portal to all federal, state and local government web resources and services.